• In Czech Republic
  • List of Countries
  • For 7 days
  • Water Temperature
  • Satellite Maps
  • Weather Map
  • Weather Widgets
  • user-avatar
    Login

    Hourly Weather Barra

    Today, 27 May, Saturday

    Time Temperature Precipitation Wind Pressure Humidity
    00:00 +19°C° 0 mm 3 mps 752 mmHg 93%
    01:00 +19°C° 0 mm 3 mps 751 mmHg 93%
    02:00 +19°C° 0 mm 3 mps 751 mmHg 92%
    03:00 +19°C° 0 mm 3 mps 751 mmHg 91%
    04:00 +19°C° 0 mm 3 mps 751 mmHg 91%
    05:00 +19°C° 0.1 mm 3 mps 751 mmHg 92%
    06:00 +19°C° 0.1 mm 3 mps 751 mmHg 93%
    07:00 +19°C° 0.1 mm 3 mps 751 mmHg 94%
    08:00 +21°C° 0.1 mm 3 mps 751 mmHg 88%
    09:00 +22°C° 0.1 mm 3 mps 752 mmHg 83%
    10:00 +23°C° 0.1 mm 4 mps 752 mmHg 77%
    11:00 +25°C° 0.1 mm 4 mps 751 mmHg 74%
    12:00 +26°C° 0.1 mm 4 mps 751 mmHg 71%
    13:00 +26°C° 0.1 mm 4 mps 751 mmHg 67%
    14:00 +26°C° 0 mm 4 mps 750 mmHg 69%
    15:00 +26°C° 0 mm 4 mps 750 mmHg 70%
    16:00 +25°C° 0 mm 4 mps 750 mmHg 71%
    17:00 +22°C° 0 mm 3 mps 750 mmHg 78%
    18:00 +20°C° 0 mm 3 mps 750 mmHg 85%
    19:00 +18°C° 0 mm 3 mps 751 mmHg 92%
    20:00 +18°C° 0 mm 3 mps 751 mmHg 93%
    21:00 +18°C° 0 mm 3 mps 751 mmHg 93%
    22:00 +18°C° 0 mm 3 mps 751 mmHg 94%
    23:00 +18°C° 0 mm 3 mps 751 mmHg 94%

    Tomorrow, 28 May, Sunday

    Time Temperature Precipitation Wind Pressure Humidity
    00:00 +18°C° 0 mm 3 mps 751 mmHg 94%
    01:00 +17°C° 0 mm 3 mps 751 mmHg 93%
    02:00 +17°C° 0 mm 3 mps 751 mmHg 94%
    03:00 +17°C° 0 mm 3 mps 751 mmHg 94%
    04:00 +17°C° 0 mm 3 mps 750 mmHg 94%
    05:00 +17°C° 0 mm 3 mps 750 mmHg 94%
    06:00 +17°C° 0 mm 3 mps 751 mmHg 94%
    07:00 +17°C° 0 mm 3 mps 751 mmHg 94%
    08:00 +19°C° 0 mm 3 mps 751 mmHg 87%
    09:00 +22°C° 0 mm 3 mps 751 mmHg 80%
    10:00 +25°C° 0 mm 3 mps 752 mmHg 72%
    11:00 +26°C° 0 mm 4 mps 751 mmHg 69%
    12:00 +26°C° 0 mm 4 mps 751 mmHg 66%
    13:00 +27°C° 0 mm 4 mps 750 mmHg 63%
    14:00 +27°C° 0 mm 3 mps 750 mmHg 65%
    15:00 +26°C° 0 mm 3 mps 749 mmHg 67%
    16:00 +26°C° 0 mm 3 mps 749 mmHg 69%
    17:00 +24°C° 0 mm 3 mps 750 mmHg 77%
    18:00 +20°C° 0 mm 3 mps 750 mmHg 85%
    19:00 +18°C° 0 mm 3 mps 750 mmHg 93%
    20:00 +18°C° 0 mm 3 mps 751 mmHg 93%
    21:00 +18°C° 0 mm 3 mps 751 mmHg 94%
    22:00 +18°C° 0 mm 3 mps 752 mmHg 94%
    23:00 +18°C° 0 mm 3 mps 751 mmHg 94%

    Day after tomorrow, 29 May, Monday

    Time Temperature Precipitation Wind Pressure Humidity
    00:00 +18°C° 0 mm 3 mps 751 mmHg 94%
    01:00 +18°C° 0 mm 3 mps 751 mmHg 94%
    02:00 +18°C° 0.1 mm 3 mps 751 mmHg 94%
    03:00 +18°C° 0.1 mm 3 mps 751 mmHg 95%
    04:00 +18°C° 0.1 mm 3 mps 750 mmHg 95%
    05:00 +18°C° 0 mm 3 mps 751 mmHg 96%
    06:00 +18°C° 0 mm 3 mps 751 mmHg 96%
    07:00 +18°C° 0 mm 3 mps 751 mmHg 96%
    08:00 +20°C° 0 mm 3 mps 752 mmHg 88%
    09:00 +22°C° 0 mm 4 mps 752 mmHg 79%
    10:00 +26°C° 0 mm 4 mps 752 mmHg 71%
    11:00 +26°C° 0 mm 4 mps 752 mmHg 67%
    12:00 +27°C° 0 mm 4 mps 751 mmHg 62%
    13:00 +27°C° 0 mm 4 mps 751 mmHg 57%
    14:00 +27°C° 0 mm 4 mps 750 mmHg 59%
    15:00 +27°C° 0 mm 4 mps 750 mmHg 60%
    16:00 +26°C° 0 mm 3 mps 750 mmHg 62%
    17:00 +24°C° 0 mm 3 mps 750 mmHg 71%
    18:00 +20°C° 0 mm 3 mps 751 mmHg 80%
    19:00 +18°C° 0 mm 3 mps 751 mmHg 89%
    20:00 +18°C° 0 mm 3 mps 751 mmHg 90%
    21:00 +17°C° 0 mm 3 mps 752 mmHg 92%
    22:00 +17°C° 0 mm 3 mps 752 mmHg 93%
    23:00 +18°C° 0 mm 3 mps 752 mmHg 93%

    30 May, Tuesday

    Time Temperature Precipitation Wind Pressure Humidity
    00:00 +18°C° 0 mm 3 mps 751 mmHg 93%
    01:00 +18°C° 0 mm 3 mps 751 mmHg 93%
    02:00 +18°C° 0 mm 3 mps 751 mmHg 93%
    03:00 +18°C° 0 mm 3 mps 751 mmHg 94%
    04:00 +18°C° 0 mm 3 mps 750 mmHg 94%
    05:00 +18°C° 0 mm 3 mps 751 mmHg 93%
    06:00 +18°C° 0 mm 4 mps 751 mmHg 93%
    07:00 +18°C° 0 mm 4 mps 752 mmHg 92%
    08:00 +20°C° 0 mm 4 mps 752 mmHg 83%
    09:00 +22°C° 0 mm 4 mps 752 mmHg 75%
    10:00 +25°C° 0 mm 4 mps 752 mmHg 66%
    11:00 +26°C° 0 mm 4 mps 752 mmHg 63%
    12:00 +27°C° 0 mm 4 mps 751 mmHg 61%
    13:00 +27°C° 0 mm 4 mps 751 mmHg 58%
    14:00 +27°C° 0 mm 4 mps 750 mmHg 60%
    15:00 +27°C° 0 mm 4 mps 750 mmHg 62%
    16:00 +26°C° 0 mm 4 mps 750 mmHg 65%
    17:00 +24°C° 0 mm 3 mps 750 mmHg 73%
    18:00 +21°C° 0 mm 3 mps 751 mmHg 82%
    19:00 +19°C° 0 mm 3 mps 751 mmHg 90%
    20:00 +19°C° 0 mm 3 mps 751 mmHg 91%
    21:00 +19°C° 0 mm 3 mps 752 mmHg 92%
    22:00 +19°C° 0 mm 4 mps 752 mmHg 93%
    23:00 +20°C° 0 mm 4 mps 752 mmHg 93%

    31 May, Wednesday

    Time Temperature Precipitation Wind Pressure Humidity
    00:00 +21°C° 0 mm 4 mps 752 mmHg 93%
    01:00 +21°C° 0 mm 4 mps 751 mmHg 94%
    02:00 +21°C° 0 mm 4 mps 751 mmHg 94%
    03:00 +21°C° 0 mm 4 mps 751 mmHg 94%
    04:00 +21°C° 0 mm 5 mps 751 mmHg 94%
    05:00 +21°C° 0.1 mm 4 mps 751 mmHg 93%
    06:00 +21°C° 0.1 mm 4 mps 751 mmHg 92%
    07:00 +20°C° 0.1 mm 4 mps 752 mmHg 91%
    08:00 +22°C° 0 mm 4 mps 752 mmHg 84%
    09:00 +23°C° 0 mm 4 mps 752 mmHg 76%
    10:00 +25°C° 0 mm 5 mps 753 mmHg 69%
    11:00 +25°C° 0 mm 4 mps 752 mmHg 64%
    12:00 +26°C° 0 mm 4 mps 751 mmHg 59%
    13:00 +27°C° 0 mm 4 mps 751 mmHg 55%
    14:00 +26°C° 0 mm 4 mps 751 mmHg 55%
    15:00 +26°C° 0 mm 4 mps 750 mmHg 56%
    16:00 +26°C° 0 mm 4 mps 750 mmHg 57%
    17:00 +23°C° 0 mm 4 mps 751 mmHg 63%
    18:00 +21°C° 0 mm 4 mps 751 mmHg 69%
    19:00 +20°C° 0 mm 4 mps 752 mmHg 76%
    20:00 +20°C° 0 mm 4 mps 752 mmHg 78%
    21:00 +20°C° 0 mm 4 mps 753 mmHg 80%
    22:00 +20°C° 0 mm 4 mps 753 mmHg 82%
    23:00 +20°C° 0 mm 4 mps 753 mmHg 85%

    1 June, Thursday

    Time Temperature Precipitation Wind Pressure Humidity
    00:00 +20°C° 0 mm 4 mps 752 mmHg 87%
    01:00 +19°C° 0 mm 5 mps 752 mmHg 90%
    02:00 +19°C° 0 mm 5 mps 752 mmHg 89%
    03:00 +19°C° 0 mm 5 mps 752 mmHg 89%
    04:00 +19°C° 0 mm 5 mps 752 mmHg 88%
    05:00 +19°C° 0 mm 5 mps 752 mmHg 87%
    06:00 +19°C° 0 mm 5 mps 752 mmHg 86%
    07:00 +19°C° 0 mm 5 mps 753 mmHg 84%
    08:00 +20°C° 0 mm 5 mps 753 mmHg 78%
    09:00 +21°C° 0 mm 5 mps 753 mmHg 72%
    10:00 +23°C° 0 mm 5 mps 753 mmHg 65%
    11:00 +23°C° 0 mm 5 mps 753 mmHg 65%
    12:00 +24°C° 0 mm 6 mps 752 mmHg 64%
    13:00 +24°C° 0 mm 6 mps 752 mmHg 63%
    14:00 +24°C° 0 mm 6 mps 752 mmHg 66%
    15:00 +23°C° 0 mm 6 mps 752 mmHg 68%
    16:00 +23°C° 0 mm 6 mps 752 mmHg 70%
    17:00 +22°C° 0 mm 5 mps 752 mmHg 74%
    18:00 +20°C° 0 mm 5 mps 753 mmHg 79%
    19:00 +19°C° 0 mm 5 mps 753 mmHg 84%
    20:00 +19°C° 0 mm 5 mps 753 mmHg 83%
    21:00 +19°C° 0 mm 5 mps 754 mmHg 82%
    22:00 +19°C° 0 mm 4 mps 754 mmHg 81%
    23:00 +19°C° 0 mm 5 mps 754 mmHg 79%
    Show more